Location: M?digepalle
(16.1753°N, 80.3496°E)
Time: 08:30:27
(UTC+00:00)

GPS 2-14 Rocket1 - Pass Details

Date: 29 October 2020
Orbit: 476 x 540 km, 20.7° (Epoch: 27 November)

Event Time Altitude Azimuth Distance (km) Brightness Sun altitude
Rises 12:49:42 0° 281° (WNW) 2,669 7.7 -10.2°
Reaches altitude 10° 12:51:59 10° 279° (W) 1,782 6.7 -10.7°
Maximum altitude 12:56:06 67° 197° (SSW) 579 3.0 -11.7°
Enters shadow 12:59:39 14° 115° (ESE) 1,564 4.7 -12.6°
